Time,TemperatureF,DewpointF,PressureIn,WindDirection,WindDirectionDegrees,WindSpeedMPH,WindSpeedGustMPH,Humidity,HourlyPrecipIn,Conditions,Clouds,dailyrainin,SoftwareType,DateUTC
2013-07-19 00:10:00,48.7,48.4,30.20,ESE,112,2.7,-999.0,99,-99.99,,,0.00,Acu-Link.com,2013-07-19 06:10:00,
2013-07-19 00:25:00,49.1,48.3,30.20,ESE,112,2.7,-999.0,97,-99.99,,,0.00,Acu-Link.com,2013-07-19 06:25:00,
2013-07-19 00:40:00,48.7,47.6,30.20,ESE,112,0.0,-999.0,96,-99.99,,,0.00,Acu-Link.com,2013-07-19 06:40:00,
2013-07-19 00:55:00,48.0,47.5,30.20,ESE,112,0.0,-999.0,98,-99.99,,,0.00,Acu-Link.com,2013-07-19 06:55:00,
2013-07-19 01:11:00,47.7,47.4,30.19,ESE,112,2.2,-999.0,99,-99.99,,,0.00,Acu-Link.com,2013-07-19 07:11:00,
2013-07-19 01:26:00,47.7,47.4,30.19,ESE,112,1.7,-999.0,99,-99.99,,,0.00,Acu-Link.com,2013-07-19 07:26:00,
2013-07-19 01:41:00,47.5,47.2,30.19,ESE,112,0.0,-999.0,99,-99.99,,,0.00,Acu-Link.com,2013-07-19 07:41:00,
2013-07-19 01:56:00,47.1,46.8,30.19,ESE,112,0.0,-999.0,99,-99.99,,,0.00,Acu-Link.com,2013-07-19 07:56:00,
2013-07-19 02:11:00,47.1,46.8,30.19,ESE,112,2.2,-999.0,99,-99.99,,,0.00,Acu-Link.com,2013-07-19 08:11:00,
2013-07-19 02:26:00,47.1,46.8,30.18,ESE,112,2.2,-999.0,99,-99.99,,,0.00,Acu-Link.com,2013-07-19 08:26:00,
2013-07-19 02:41:00,47.1,46.8,30.18,ESE,112,0.0,-999.0,99,-99.99,,,0.00,Acu-Link.com,2013-07-19 08:41:00,
2013-07-19 02:56:00,46.9,46.6,30.17,ESE,112,2.2,-999.0,99,-99.99,,,0.00,Acu-Link.com,2013-07-19 08:56:00,
2013-07-19 03:12:00,46.9,46.4,30.18,ESE,112,0.0,-999.0,98,-99.99,,,0.00,Acu-Link.com,2013-07-19 09:12:00,
2013-07-19 03:27:00,47.1,46.0,30.16,ESE,112,0.0,-999.0,96,-99.99,,,0.00,Acu-Link.com,2013-07-19 09:27:00,
2013-07-19 03:42:00,47.1,46.0,30.16,ESE,112,2.2,-999.0,96,-99.99,,,0.00,Acu-Link.com,2013-07-19 09:42:00,
2013-07-19 03:57:00,47.5,45.6,30.16,ESE,112,1.7,-999.0,93,-99.99,,,0.00,Acu-Link.com,2013-07-19 09:57:00,
2013-07-19 04:12:00,46.9,45.3,30.16,ESE,112,0.0,-999.0,94,-99.99,,,0.00,Acu-Link.com,2013-07-19 10:12:00,
2013-07-19 04:27:00,46.8,44.9,30.16,ESE,112,0.0,-999.0,93,-99.99,,,0.00,Acu-Link.com,2013-07-19 10:27:00,
2013-07-19 04:43:00,46.9,44.7,30.16,ESE,112,0.0,-999.0,92,-99.99,,,0.00,Acu-Link.com,2013-07-19 10:43:00,
2013-07-19 04:58:00,46.2,44.3,30.17,ESE,112,0.0,-999.0,93,-99.99,,,0.00,Acu-Link.com,2013-07-19 10:58:00,
2013-07-19 05:13:00,45.3,44.0,30.16,ESE,112,0.0,-999.0,95,-99.99,,,0.00,Acu-Link.com,2013-07-19 11:13:00,
2013-07-19 05:28:00,46.4,43.6,30.16,ESE,112,0.0,-999.0,90,-99.99,,,0.00,Acu-Link.com,2013-07-19 11:28:00,
2013-07-19 05:43:00,46.8,43.7,30.17,ESE,112,2.2,-999.0,89,-99.99,,,0.00,Acu-Link.com,2013-07-19 11:43:00,
2013-07-19 05:58:00,46.2,43.1,30.17,ESE,112,0.0,-999.0,89,-99.99,,,0.00,Acu-Link.com,2013-07-19 11:58:00,
2013-07-19 06:13:00,46.8,42.8,30.17,ESE,112,1.7,-999.0,86,-99.99,,,0.00,Acu-Link.com,2013-07-19 12:13:00,
2013-07-19 06:28:00,47.3,42.7,30.17,ESE,112,2.2,-999.0,84,-99.99,,,0.00,Acu-Link.com,2013-07-19 12:28:00,
2013-07-19 06:43:00,48.9,43.3,30.17,ESE,112,2.2,-999.0,81,-99.99,,,0.00,Acu-Link.com,2013-07-19 12:43:00,
2013-07-19 06:59:00,49.1,43.8,30.17,ESE,112,1.1,-999.0,82,-99.99,,,0.00,Acu-Link.com,2013-07-19 12:59:00,
2013-07-19 07:14:00,48.9,43.0,30.18,ESE,112,0.0,-999.0,80,-99.99,,,0.00,Acu-Link.com,2013-07-19 13:14:00,
2013-07-19 07:29:00,50.4,46.1,30.18,ESE,112,0.0,-999.0,85,-99.99,,,0.00,Acu-Link.com,2013-07-19 13:29:00,
2013-07-19 07:44:00,52.0,47.3,30.19,ESE,112,0.0,-999.0,84,-99.99,,,0.00,Acu-Link.com,2013-07-19 13:44:00,
2013-07-19 07:59:00,52.9,46.6,30.19,ESE,112,0.0,-999.0,79,-99.99,,,0.00,Acu-Link.com,2013-07-19 13:59:00,
2013-07-19 08:14:00,54.0,47.3,30.19,ESE,112,0.0,-999.0,78,-99.99,,,0.00,Acu-Link.com,2013-07-19 14:14:00,
2013-07-19 08:30:00,56.8,47.1,30.20,ESE,112,2.7,-999.0,70,-99.99,,,0.00,Acu-Link.com,2013-07-19 14:30:00,
2013-07-19 08:45:00,62.6,47.6,30.20,ESE,112,1.7,-999.0,58,-99.99,,,0.00,Acu-Link.com,2013-07-19 14:45:00,
2013-07-19 09:00:00,65.3,46.7,30.20,ESE,112,4.2,-999.0,51,-99.99,,,0.00,Acu-Link.com,2013-07-19 15:00:00,
2013-07-19 09:15:00,66.0,46.3,30.20,ESE,112,2.2,-999.0,49,-99.99,,,0.00,Acu-Link.com,2013-07-19 15:15:00,
2013-07-19 09:30:00,63.9,45.9,30.20,ESE,112,2.2,-999.0,52,-99.99,,,0.00,Acu-Link.com,2013-07-19 15:30:00,
2013-07-19 09:45:00,66.0,46.3,30.20,ESE,112,2.7,-999.0,49,-99.99,,,0.00,Acu-Link.com,2013-07-19 15:45:00,
2013-07-19 10:00:00,67.3,46.4,30.19,ESE,112,4.7,-999.0,47,-99.99,,,0.00,Acu-Link.com,2013-07-19 16:00:00,
2013-07-19 10:16:00,66.9,48.2,30.20,ESE,112,4.7,-999.0,51,-99.99,,,0.00,Acu-Link.com,2013-07-19 16:16:00,
2013-07-19 10:31:00,69.3,46.4,30.20,ESE,112,4.2,-999.0,44,-99.99,,,0.00,Acu-Link.com,2013-07-19 16:31:00,
2013-07-19 10:46:00,67.5,47.1,30.20,North,0,2.2,-999.0,48,-99.99,,,0.00,Acu-Link.com,2013-07-19 16:46:00,
2013-07-19 11:01:00,67.6,46.1,30.19,ESE,112,2.7,-999.0,46,-99.99,,,0.00,Acu-Link.com,2013-07-19 17:01:00,
2013-07-19 11:16:00,69.3,47.0,30.19,NNE,22,4.7,-999.0,45,-99.99,,,0.00,Acu-Link.com,2013-07-19 17:16:00,
2013-07-19 11:31:00,70.3,46.7,30.19,East,90,4.2,-999.0,43,-99.99,,,0.00,Acu-Link.com,2013-07-19 17:31:00,
2013-07-19 11:47:00,71.4,47.1,30.18,SSW,202,3.2,-999.0,42,-99.99,,,0.00,Acu-Link.com,2013-07-19 17:47:00,
2013-07-19 12:02:00,70.5,46.9,30.17,ESE,112,2.7,-999.0,43,-99.99,,,0.00,Acu-Link.com,2013-07-19 18:02:00,
2013-07-19 12:17:00,70.7,47.7,30.17,East,90,3.7,-999.0,44,-99.99,,,0.00,Acu-Link.com,2013-07-19 18:17:00,
2013-07-19 12:32:00,71.1,46.2,30.17,SSW,202,3.2,-999.0,41,-99.99,,,0.00,Acu-Link.com,2013-07-19 18:32:00,
2013-07-19 12:47:00,69.6,47.3,30.16,East,90,6.3,-999.0,45,-99.99,,,0.00,Acu-Link.com,2013-07-19 18:47:00,
2013-07-19 13:02:00,66.9,46.0,30.17,East,90,2.2,-999.0,47,-99.99,,,0.00,Acu-Link.com,2013-07-19 19:02:00,
2013-07-19 13:18:00,67.1,45.6,30.17,NNW,337,4.2,-999.0,46,-99.99,,,0.00,Acu-Link.com,2013-07-19 19:18:00,
2013-07-19 13:33:00,65.8,45.6,30.16,East,90,1.7,-999.0,48,-99.99,,,0.00,Acu-Link.com,2013-07-19 19:33:00,
2013-07-19 13:48:00,64.4,48.4,30.16,East,90,3.7,-999.0,56,-99.99,,,0.00,Acu-Link.com,2013-07-19 19:48:00,
2013-07-19 14:03:00,65.1,50.0,30.16,East,90,2.7,-999.0,58,-99.99,,,0.00,Acu-Link.com,2013-07-19 20:03:00,
2013-07-19 14:18:00,64.6,47.6,30.15,East,90,4.7,-999.0,54,-99.99,,,0.00,Acu-Link.com,2013-07-19 20:18:00,
2013-07-19 14:33:00,69.1,48.0,30.14,East,90,1.7,-999.0,47,-99.99,,,0.00,Acu-Link.com,2013-07-19 20:33:00,
2013-07-19 14:48:00,72.3,49.2,30.13,East,90,3.2,-999.0,44,-99.99,,,0.00,Acu-Link.com,2013-07-19 20:48:00,
2013-07-19 15:04:00,72.1,46.4,30.12,East,90,2.7,-999.0,40,-99.99,,,0.00,Acu-Link.com,2013-07-19 21:04:00,
2013-07-19 15:19:00,72.1,45.8,30.12,East,90,2.7,-999.0,39,-99.99,,,0.00,Acu-Link.com,2013-07-19 21:19:00,
2013-07-19 15:34:00,73.8,45.9,30.11,East,90,1.1,-999.0,37,-99.99,,,0.00,Acu-Link.com,2013-07-19 21:34:00,
2013-07-19 15:50:00,70.3,44.8,30.10,East,90,0.0,-999.0,40,-99.99,,,0.00,Acu-Link.com,2013-07-19 21:50:00,
2013-07-19 16:05:00,72.9,47.1,30.09,East,90,1.1,-999.0,40,-99.99,,,0.00,Acu-Link.com,2013-07-19 22:05:00,
2013-07-19 16:20:00,71.8,45.5,30.10,East,90,2.7,-999.0,39,-99.99,,,0.00,Acu-Link.com,2013-07-19 22:20:00,
2013-07-19 16:35:00,71.4,45.8,30.09,East,90,1.7,-999.0,40,-99.99,,,0.00,Acu-Link.com,2013-07-19 22:35:00,
2013-07-19 16:50:00,70.3,46.1,30.10,East,90,0.0,-999.0,42,-99.99,,,0.00,Acu-Link.com,2013-07-19 22:50:00,
2013-07-19 17:05:00,67.8,46.3,30.09,East,90,1.7,-999.0,46,-99.99,,,0.00,Acu-Link.com,2013-07-19 23:05:00,
2013-07-19 17:21:00,66.6,47.9,30.09,East,90,2.7,-999.0,51,-99.99,,,0.00,Acu-Link.com,2013-07-19 23:21:00,
2013-07-19 17:36:00,69.1,49.1,30.09,East,90,2.7,-999.0,49,-99.99,,,0.00,Acu-Link.com,2013-07-19 23:36:00,
2013-07-19 17:51:00,68.7,49.3,30.08,East,90,2.7,-999.0,50,-99.99,,,0.00,Acu-Link.com,2013-07-19 23:51:00,
2013-07-19 18:06:00,69.1,49.1,30.08,ESE,112,2.7,-999.0,49,-99.99,,,0.00,Acu-Link.com,2013-07-20 00:06:00,
2013-07-19 18:21:00,67.6,48.3,30.08,ESE,112,2.2,-999.0,50,-99.99,,,0.00,Acu-Link.com,2013-07-20 00:21:00,
2013-07-19 18:36:00,66.7,48.5,30.09,ESE,112,2.2,-999.0,52,-99.99,,,0.00,Acu-Link.com,2013-07-20 00:36:00,
2013-07-19 18:51:00,64.4,50.2,30.10,ESE,112,5.3,-999.0,60,-99.99,,,0.00,Acu-Link.com,2013-07-20 00:51:00,
2013-07-19 19:07:00,62.8,52.1,30.11,ESE,112,4.2,-999.0,68,-99.99,,,0.00,Acu-Link.com,2013-07-20 01:07:00,
2013-07-19 19:22:00,60.1,51.4,30.11,ESE,112,1.7,-999.0,73,-99.99,,,0.00,Acu-Link.com,2013-07-20 01:22:00,
2013-07-19 19:37:00,58.5,50.6,30.11,NNW,337,1.1,-999.0,75,-99.99,,,0.00,Acu-Link.com,2013-07-20 01:37:00,
2013-07-19 19:52:00,57.7,49.8,30.11,NNW,337,2.2,-999.0,75,-99.99,,,0.00,Acu-Link.com,2013-07-20 01:52:00,
2013-07-19 20:07:00,57.4,49.5,30.10,SE,135,1.1,-999.0,75,-99.99,,,0.00,Acu-Link.com,2013-07-20 02:07:00,
2013-07-19 20:22:00,56.5,49.0,30.09,SE,135,1.1,-999.0,76,-99.99,,,0.00,Acu-Link.com,2013-07-20 02:22:00,
2013-07-19 20:38:00,55.0,48.6,30.10,SE,135,3.2,-999.0,79,-99.99,,,0.00,Acu-Link.com,2013-07-20 02:38:00,
2013-07-19 20:53:00,54.3,48.3,30.10,ESE,112,0.0,-999.0,80,-99.99,,,0.00,Acu-Link.com,2013-07-20 02:53:00,
2013-07-19 21:08:00,53.4,46.0,30.10,ESE,112,0.0,-999.0,76,-99.99,,,0.00,Acu-Link.com,2013-07-20 03:08:00,
2013-07-19 21:23:00,52.7,45.3,30.11,ESE,112,0.0,-999.0,76,-99.99,,,0.00,Acu-Link.com,2013-07-20 03:23:00,
2013-07-19 21:38:00,52.0,44.7,30.11,ESE,112,0.0,-999.0,76,-99.99,,,0.00,Acu-Link.com,2013-07-20 03:38:00,
2013-07-19 21:53:00,50.4,44.5,30.11,ESE,112,0.0,-999.0,80,-99.99,,,0.00,Acu-Link.com,2013-07-20 03:53:00,
2013-07-19 22:08:00,49.5,44.2,30.11,ESE,112,0.0,-999.0,82,-99.99,,,0.00,Acu-Link.com,2013-07-20 04:08:00,
2013-07-19 22:23:00,49.5,44.2,30.11,ESE,112,1.1,-999.0,82,-99.99,,,0.00,Acu-Link.com,2013-07-20 04:23:00,
2013-07-19 22:38:00,49.8,43.9,30.10,ESE,112,2.2,-999.0,80,-99.99,,,0.00,Acu-Link.com,2013-07-20 04:38:00,
2013-07-19 22:54:00,49.1,42.9,30.10,ESE,112,3.2,-999.0,79,-99.99,,,0.00,Acu-Link.com,2013-07-20 04:54:00,
2013-07-19 23:09:00,48.7,42.8,30.09,ESE,112,1.7,-999.0,80,-99.99,,,0.00,Acu-Link.com,2013-07-20 05:09:00,
2013-07-19 23:24:00,49.5,41.6,30.09,ESE,112,0.0,-999.0,74,-99.99,,,0.00,Acu-Link.com,2013-07-20 05:24:00,
2013-07-19 23:39:00,49.1,41.2,30.08,ESE,112,1.7,-999.0,74,-99.99,,,0.00,Acu-Link.com,2013-07-20 05:39:00,
2013-07-19 23:54:00,50.0,41.7,30.09,ESE,112,2.2,-999.0,73,-99.99,,,0.00,Acu-Link.com,2013-07-20 05:54:00,